TimeMDT,TemperatureF,Dew PointF,Humidity,Sea Level PressureIn,VisibilityMPH,Wind Direction,Wind SpeedMPH,Gust SpeedMPH,PrecipitationIn,Events,Conditions,WindDirDegrees,DateUTC
12:12 AM,51.8,2.3,13,29.99,10.0,WNW,19.6,-,N/A,,Clear,290,2012-10-09 06:12:00
12:52 AM,51.6,3.7,14,29.98,10.0,WNW,18.4,23.0,N/A,,Clear,290,2012-10-09 06:52:00
1:12 AM,52.3,4.3,14,29.98,10.0,WNW,18.4,-,N/A,,Clear,290,2012-10-09 07:12:00
2:12 AM,47.7,7.7,20,30.00,10.0,NW,5.8,-,N/A,,Clear,320,2012-10-09 08:12:00
2:32 AM,47.8,6.8,19,30.00,10.0,Calm,Calm,-,N/A,,Clear,0,2012-10-09 08:32:00
2:52 AM,50.7,9.3,19,29.99,10.0,SSW,8.1,-,N/A,,Clear,200,2012-10-09 08:52:00
3:12 AM,49.3,10.9,21,29.98,10.0,WSW,10.4,-,N/A,,Clear,240,2012-10-09 09:12:00
3:32 AM,49.8,11.7,22,29.98,10.0,West,12.7,16.1,N/A,,Clear,260,2012-10-09 09:32:00
3:52 AM,50.2,11.1,21,29.98,10.0,West,10.4,16.1,N/A,,Clear,270,2012-10-09 09:52:00
4:12 AM,50.0,11.7,21,29.99,10.0,WNW,15.0,20.7,N/A,,Clear,290,2012-10-09 10:12:00
4:32 AM,49.6,12.2,22,30.00,10.0,West,12.7,19.6,N/A,,Clear,280,2012-10-09 10:32:00
4:52 AM,48.2,12.7,24,30.01,10.0,WNW,11.5,18.4,N/A,,Clear,290,2012-10-09 10:52:00
5:12 AM,46.0,13.6,27,30.01,10.0,WNW,12.7,-,N/A,,Clear,300,2012-10-09 11:12:00
5:32 AM,47.7,13.3,25,30.01,10.0,WNW,13.8,-,N/A,,Clear,300,2012-10-09 11:32:00
5:52 AM,44.2,14.4,30,30.02,10.0,WNW,10.4,-,N/A,,Clear,300,2012-10-09 11:52:00
6:12 AM,40.3,14.9,36,30.02,10.0,WNW,8.1,-,N/A,,Clear,290,2012-10-09 12:12:00
6:32 AM,42.4,15.1,33,30.02,10.0,WNW,9.2,-,N/A,,Clear,290,2012-10-09 12:32:00
6:52 AM,44.2,15.3,31,30.02,10.0,WNW,11.5,16.1,N/A,,Clear,300,2012-10-09 12:52:00
7:12 AM,43.0,15.6,33,30.03,10.0,NW,8.1,-,N/A,,Clear,310,2012-10-09 13:12:00
7:32 AM,42.1,16.7,36,30.04,10.0,NW,8.1,-,N/A,,Clear,320,2012-10-09 13:32:00
7:52 AM,47.5,16.9,30,30.04,10.0,NW,6.9,-,N/A,,Clear,320,2012-10-09 13:52:00
8:12 AM,49.6,18.0,29,30.04,10.0,NW,5.8,-,N/A,,Clear,310,2012-10-09 14:12:00
8:32 AM,54.0,18.7,25,30.05,10.0,NW,4.6,-,N/A,,Clear,310,2012-10-09 14:32:00
8:52 AM,57.0,17.1,21,30.06,10.0,WNW,4.6,-,N/A,,Clear,290,2012-10-09 14:52:00
9:12 AM,58.5,15.8,19,30.06,10.0,Calm,Calm,-,N/A,,Clear,0,2012-10-09 15:12:00
9:32 AM,55.2,18.9,24,30.06,10.0,ENE,5.8,-,N/A,,Clear,60,2012-10-09 15:32:00
9:52 AM,57.2,18.9,22,30.06,10.0,NE,5.8,-,N/A,,Clear,40,2012-10-09 15:52:00
10:12 AM,57.4,19.9,23,30.06,10.0,NE,10.4,-,N/A,,Clear,40,2012-10-09 16:12:00
10:32 AM,58.8,20.7,23,30.06,10.0,NE,9.2,-,N/A,,Clear,40,2012-10-09 16:32:00
10:52 AM,59.2,22.1,24,30.06,10.0,NE,9.2,-,N/A,,Clear,40,2012-10-09 16:52:00
11:12 AM,58.3,24.1,27,30.06,10.0,NE,9.2,12.7,N/A,,Clear,50,2012-10-09 17:12:00
11:32 AM,59.4,25.7,28,30.06,10.0,NE,9.2,16.1,N/A,,Clear,40,2012-10-09 17:32:00
11:52 AM,58.3,28.8,33,30.06,10.0,NE,16.1,24.2,N/A,,Clear,50,2012-10-09 17:52:00
12:12 PM,57.6,29.5,34,30.06,10.0,NE,13.8,-,N/A,,Clear,50,2012-10-09 18:12:00
12:32 PM,58.6,30.4,34,30.06,10.0,NE,15.0,18.4,N/A,,Clear,50,2012-10-09 18:32:00
12:52 PM,59.4,30.7,34,30.06,10.0,NE,15.0,-,N/A,,Clear,40,2012-10-09 18:52:00
1:12 PM,56.3,31.6,39,30.06,10.0,ENE,13.8,21.9,N/A,,Clear,60,2012-10-09 19:12:00
1:32 PM,55.0,31.8,41,30.07,10.0,NNE,10.4,17.3,N/A,,Clear,30,2012-10-09 19:32:00
1:52 PM,56.5,31.8,39,30.07,10.0,NE,10.4,16.1,N/A,,Clear,40,2012-10-09 19:52:00
2:12 PM,56.3,31.6,39,30.08,10.0,ENE,12.7,-,N/A,,Clear,60,2012-10-09 20:12:00
2:32 PM,54.7,32.0,42,30.08,10.0,ENE,13.8,20.7,N/A,,Clear,70,2012-10-09 20:32:00
2:52 PM,53.6,32.2,44,30.09,10.0,ENE,11.5,20.7,N/A,,Clear,60,2012-10-09 20:52:00
3:12 PM,52.5,32.7,47,30.10,10.0,East,15.0,24.2,N/A,,Clear,80,2012-10-09 21:12:00
3:32 PM,50.7,33.1,51,30.12,10.0,East,12.7,17.3,N/A,,Clear,80,2012-10-09 21:32:00
3:52 PM,48.9,33.3,55,30.13,10.0,East,12.7,20.7,N/A,,Clear,90,2012-10-09 21:52:00
4:12 PM,48.0,33.8,58,30.13,10.0,East,13.8,-,N/A,,Clear,80,2012-10-09 22:12:00
4:32 PM,45.5,33.6,63,30.14,10.0,NE,12.7,17.3,N/A,,Clear,50,2012-10-09 22:32:00
4:52 PM,43.7,33.6,68,30.15,10.0,ENE,11.5,-,N/A,,Clear,60,2012-10-09 22:52:00
5:12 PM,41.5,33.3,72,30.16,10.0,ENE,13.8,-,N/A,,Clear,60,2012-10-09 23:12:00
5:32 PM,40.3,33.1,75,30.16,10.0,ENE,10.4,-,N/A,,Scattered Clouds,60,2012-10-09 23:32:00
5:52 PM,39.2,32.9,78,30.18,10.0,ENE,9.2,-,N/A,,Mostly Cloudy,60,2012-10-09 23:52:00
6:12 PM,38.3,32.9,81,30.18,10.0,NE,5.8,-,N/A,,Overcast,40,2012-10-10 00:12:00
6:32 PM,37.6,32.9,83,30.19,10.0,NE,9.2,-,N/A,,Overcast,50,2012-10-10 00:32:00
6:52 PM,37.4,32.9,84,30.20,10.0,NE,6.9,-,N/A,,Overcast,50,2012-10-10 00:52:00
7:12 PM,36.9,32.9,86,30.21,7.0,ENE,5.8,-,N/A,,Overcast,60,2012-10-10 01:12:00
7:32 PM,36.5,32.9,87,30.21,7.0,NE,6.9,-,N/A,,Overcast,50,2012-10-10 01:32:00
7:52 PM,36.7,33.1,87,30.23,7.0,ENE,3.5,-,N/A,,Overcast,60,2012-10-10 01:52:00
8:12 PM,37.4,33.3,85,30.23,7.0,East,6.9,-,N/A,,Overcast,80,2012-10-10 02:12:00
8:32 PM,37.4,32.9,84,30.24,10.0,ESE,5.8,-,N/A,,Overcast,120,2012-10-10 02:32:00
8:52 PM,37.4,32.9,84,30.24,10.0,South,5.8,-,N/A,,Overcast,170,2012-10-10 02:52:00
9:12 PM,37.4,33.1,84,30.25,10.0,SSE,5.8,-,N/A,,Overcast,160,2012-10-10 03:12:00
9:32 PM,37.4,33.1,84,30.26,10.0,SE,3.5,-,N/A,,Overcast,140,2012-10-10 03:32:00
9:52 PM,37.0,32.9,85,30.26,10.0,SSE,5.8,-,N/A,,Overcast,150,2012-10-10 03:52:00
10:12 PM,36.9,32.9,86,30.26,10.0,SSE,9.2,-,N/A,,Overcast,150,2012-10-10 04:12:00
10:32 PM,36.5,32.9,87,30.26,10.0,SSE,8.1,-,N/A,,Overcast,160,2012-10-10 04:32:00
10:52 PM,36.0,33.3,90,30.26,10.0,SSE,9.2,-,N/A,,Overcast,160,2012-10-10 04:52:00
11:12 PM,35.8,33.3,91,30.26,10.0,South,8.1,-,N/A,,Overcast,180,2012-10-10 05:12:00
11:32 PM,35.8,33.1,90,30.26,10.0,South,10.4,-,N/A,,Overcast,180,2012-10-10 05:32:00
11:52 PM,35.6,32.9,90,30.25,10.0,South,10.4,-,N/A,,Overcast,180,2012-10-10 05:52:00